Weather observations for the past three days for
Port Angeles Fairchild International Airport
Imperial (Metric)
Date Time (pdt) Wind (mph) Vis. (mi.) Weather Sky Cond. Temperature (ºF) Relative Humidity Wind Chill (°F) Heat Index (°F) Pressure Precipitation (in)
Air Dwpt 6 hour altimeter (in) sea level (mb) 1 hr 3 hr 6 hr
Max. Min.
24 07:53 SW 6 10.00 Fair CLR 61 50 67% 30.1 1019.3
24 06:53 Calm 10.00 Fair CLR 55 50 83% 30.09 1019.0
24 05:53 Calm 10.00 Fair CLR 51.1 48 89% 30.1 1019.2
24 04:53 SW 5 10.00 Fair CLR 53.1 48.9 59 52 86% 30.1 1019.1
24 03:53 SW 5 10.00 Fair CLR 54 48.9 83% 30.1 1019.4
24 02:53 SW 6 10.00 Fair CLR 55 48.9 80% 30.1 1019.2
24 01:53 W 9 10.00 Fair CLR 57 48 72% 30.1 1019.4
24 00:53 W 10 10.00 Fair CLR 57.9 46.9 67% 30.1 1019.4
23 23:53 W 8 10.00 Fair CLR 57.9 48.9 72% 30.1 1019.4
23 22:53 W 10 10.00 Fair CLR 59 51.1 68 57.9 75% 30.1 1019.4
23 21:53 W 12 10.00 Fair CLR 59 51.1 75% 30.11 1019.6
23 20:53 W 13 G 18 10.00 Fair CLR 60.1 50 70% 30.1 1019.4
23 19:53 W 13 10.00 Fair CLR 63 50 63% 30.11 1019.5
23 18:53 NW 9 10.00 Fair CLR 66 48.9 54% 30.11 1019.5
23 17:53 W 13 10.00 Fair CLR 66.9 48 51% 30.12 1020.1
23 16:53 W 12 10.00 Fair CLR 68 48.9 69.1 63 51% 30.14 1020.5
23 15:53 W 10 G 18 10.00 Fair CLR 68 48.9 51% 30.16 1021.2
23 14:53 W 16 G 22 10.00 Fair CLR 66 50 56% 30.17 1021.8
23 13:53 NW 8 10.00 Fair CLR 66.9 52 59% 30.18 1022.1
23 12:53 NW 8 10.00 Fair CLR 66.9 53.1 61% 30.19 1022.3
23 11:53 NW 10 10.00 Fair CLR 64.9 52 63% 30.21 1023.0
23 10:53 W 10 10.00 Fair CLR 64 51.1 64 51.1 63% 30.22 1023.2
23 09:53 NW 14 G 18 10.00 Fair CLR 62.1 51.1 67% 30.22 1023.4
23 08:53 NW 9 10.00 Fair CLR 60.1 52 75% 30.23 1023.6
23 07:53 NW 9 10.00 Fair CLR 57 51.1 81% 30.22 1023.4
23 06:53 W 10 10.00 Fair CLR 59 46 62% 30.21 1022.9
23 05:53 W 13 10.00 Fair CLR 55 46 72% 30.2 1022.7
23 04:53 SW 6 10.00 Fair CLR 51.1 46 59 48.9 83% 30.22 1023.4
23 03:53 SW 5 10.00 Fair CLR 53.1 46.9 80% 30.23 1023.7
23 02:53 W 7 10.00 Fair CLR 53.1 46.9 80% 30.22 1023.4
23 01:53 W 6 10.00 Fair CLR 55 48 77% 30.21 1023.1
23 00:53 W 9 10.00 Fair CLR 57 46.9 69% 30.21 1022.8
22 23:53 W 12 G 22 10.00 Fair CLR 59 46.9 64% 30.18 1022.1
22 22:53 W 9 10.00 Fair CLR 57.9 48.9 64.9 55.9 72% 30.17 1021.7
22 21:53 W 9 10.00 Fair CLR 57.9 50 75% 30.17 1021.7
22 20:53 W 9 G 18 10.00 Fair CLR 59 50 72% 30.16 1021.3
22 19:53 W 15 G 26 10.00 Fair CLR 61 51.1 70% 30.15 1021.1
22 18:53 W 13 G 28 10.00 Fair CLR 61 52 72% 30.16 1021.4
22 17:53 W 22 G 33 10.00 A Few Clouds and Breezy FEW046 62.1 51.1 67% 30.16 1021.4
22 16:53 NW 12 G 26 10.00 Fair CLR 63 52 66 63 68% 30.16 1021.2
22 15:53 W 14 G 32 10.00 Fair CLR 64 53.1 68% 30.15 1020.8
22 14:53 W 17 G 26 10.00 A Few Clouds FEW011 63 54 73% 30.15 1020.8
22 13:53 W 18 G 32 10.00 Fair CLR 64.9 54 68% 30.14 1020.5
22 12:53 W 20 G 30 10.00 Fair CLR 64 54 70% 30.13 1020.2
22 11:53 W 15 G 24 10.00 Fair CLR 64 54 70% 30.12 1019.9
22 10:53 NW 13 G 24 10.00 Fair CLR 64 54 64.9 57 70% 30.12 1019.9
22 09:53 NW 15 G 21 10.00 Fair CLR 64.9 53.1 66% 30.11 1019.7
22 08:53 NW 14 G 23 10.00 Fair CLR 62.1 53.1 73% 30.11 1019.6
22 07:53 NW 8 10.00 Fair CLR 61 53.1 75% 30.11 1019.6
22 06:53 W 13 10.00 Fair CLR 59 51.1 75% 30.11 1019.5
22 05:53 W 8 10.00 Fair CLR 57 51.1 81% 30.11 1019.6
22 04:53 W 10 10.00 Fair CLR 57 51.1 62.1 57 81% 30.11 1019.4
22 03:53 W 9 10.00 Fair CLR 57.9 51.1 78% 30.1 1019.2
22 02:53 W 13 G 20 10.00 Fair CLR 57.9 52 81% 30.1 1019.3
22 01:53 W 14 10.00 Fair CLR 59 53.1 81% 30.1 1019.1
22 00:53 W 8 10.00 Fair CLR 59 53.1 81% 30.1 1019.4
21 23:53 W 12 10.00 Fair CLR 60.1 53.1 78% 30.09 1019.1
21 22:53 W 13 10.00 Fair CLR 61 53.1 68 61 75% 30.09 1019.0
21 21:53 W 13 10.00 Fair CLR 61 54 78% 30.1 1019.3
21 20:53 W 10 10.00 Fair CLR 61 55 81% 30.09 1018.9
21 19:53 W 14 G 24 10.00 Fair CLR 64 57 78% 30.08 1018.6
21 18:53 W 10 G 22 10.00 Fair CLR 64.9 57 76% 30.08 1018.7
21 17:53 NW 13 G 21 10.00 Fair CLR 64 55.9 75% 30.09 1019.0
21 16:53 NW 12 10.00 Fair CLR 68 57 72 59 68% 30.09 1018.9
21 15:53 W 10 10.00 Fair CLR 66.9 57 71% 30.1 1019.3
21 14:53 NW 12 10.00 Fair CLR 64.9 55.9 73% 30.1 1019.4
21 13:53 NW 14 G 24 10.00 Fair CLR 64 55.9 75% 30.1 1019.4
21 12:53 NW 6 10.00 A Few Clouds FEW100 64.9 57 76% 30.08 1018.6
21 11:53 W 5 10.00 A Few Clouds FEW095 FEW110 62.1 55.9 80% 30.08 1018.7
21 10:53 W 5 10.00 A Few Clouds FEW003 59 55.9 59 55 90% 30.09 1019.0
21 09:53 NW 9 10.00 Overcast OVC004 57.9 55.9 93% 30.1 1019.3
21 08:53 W 6 10.00 Mostly Cloudy BKN004 57.9 55.9 93% 30.09 1018.8
Date Time (pdt) Wind (mph) Vis. (mi.) Weather Sky Cond. Air Dwpt Max. Min. Relative Humidity Wind Chill (°F) Heat Index (°F) altimeter (in) sea level (mb) 1 hr 3 hr 6 hr
6 hour
Temperature (ºF) Pressure Precipitation (in)